Wind_Speed
14 13 12 12 12 12 13 14 15 17 17 18 19 19 20 21 22 23 25 26 26 27 27 27 27 28 29 29 29 28 28 28 27 27 27 27 27 26 25 25 25 26
14 13 12 13 13 13 13 14 15 16 17 18 19 20 21 22 23 24 26 27 28 29 30 31 31 32 33 33 31 30 31 31 30 29 28 28 27 26 26 26 27 27
14 13 13 14 14 14 14 15 16 18 19 20 21 21 22 23 23 24 26 27 28 30 32 33 34 35 36 36 35 33 32 32 32 31 29 29 28 28 27 27 28 28
14 14 14 14 15 15 16 17 18 20 22 23 24 23 23 23 24 25 26 27 28 30 32 34 35 36 38 38 37 36 34 33 33 33 32 30 29 29 28 28 29 29
14 14 14 15 16 17 17 18 20 22 24 25 25 24 24 25 25 26 28 29 30 33 34 35 35 35 36 38 38 37 35 33 33 34 33 31 30 29 29 28 29 29
14 14 15 16 17 18 19 20 21 23 24 25 25 25 25 26 27 28 30 31 33 35 35 35 35 34 34 37 38 34 31 32 34 34 32 32 31 30 29 29 29 29
14 15 16 17 17 18 20 22 22 23 25 25 24 24 26 27 28 29 31 32 33 33 33 34 34 32 32 35 33 27 27 31 33 33 32 31 32 31 30 29 28 29
14 15 16 18 19 20 23 25 24 25 27 26 25 25 26 27 28 30 31 31 31 32 34 35 33 29 29 28 25 23 26 29 31 32 32 31 32 32 30 28 28 28
15 16 17 19 21 22 25 26 27 27 29 29 27 25 26 27 29 30 30 31 29 29 32 33 30 27 23 20 22 25 26 27 29 31 32 33 34 33 30 28 28 29
16 17 19 20 21 23 25 27 28 28 30 30 28 25 26 28 29 30 31 31 28 25 27 28 28 25 19 19 25 27 26 26 28 29 31 33 35 34 32 30 30 31
17 18 18 19 20 22 24 27 28 28 30 30 28 26 26 29 31 30 31 32 29 26 25 24 25 24 22 23 27 29 28 28 28 29 31 33 34 34 34 34 35 35
17 18 18 19 20 22 25 28 29 30 32 32 29 26 27 30 32 32 33 34 33 31 28 25 25 25 27 28 29 30 30 29 29 30 30 31 33 34 35 35 35 33
17 17 18 19 21 23 26 29 30 32 33 31 27 26 27 31 34 35 34 31 26 23 23 25 25 26 29 31 31 32 33 31 31 32 30 30 32 33 33 32 31 31
17 18 20 21 23 25 28 31 33 36 36 33 31 31 31 33 35 36 32 24 17 18 20 22 23 24 28 32 33 34 34 33 33 33 32 32 33 32 31 30 30 31
20 21 23 24 26 28 31 34 36 39 38 33 35 36 33 34 35 36 34 27 22 25 29 24 21 22 26 31 34 34 33 33 33 33 33 33 33 33 31 30 31 33
23 24 25 27 29 31 35 37 39 42 39 32 33 35 31 32 35 35 32 27 26 30 32 25 20 21 25 30 33 33 32 32 32 32 32 33 33 33 32 32 33 35
25 26 28 30 32 34 38 40 41 43 41 36 35 35 31 31 33 30 26 23 24 28 28 25 22 22 25 30 33 32 31 31 31 32 31 32 32 33 34 35 35 36
26 27 29 31 34 37 40 42 43 45 44 39 37 35 32 32 32 30 27 27 26 26 26 26 24 23 26 31 33 31 31 31 31 31 31 31 32 34 35 36 36 37
27 29 31 33 36 38 41 43 45 45 44 41 37 34 33 32 30 30 30 29 27 26 26 26 26 25 27 31 33 32 31 31 31 31 30 30 33 35 36 36 37 39
29 31 33 35 37 40 42 44 45 45 44 41 38 35 33 31 30 29 29 28 27 26 27 26 27 27 29 32 34 33 32 32 31 30 29 31 33 35 36 36 38 40
32 34 35 37 39 41 43 45 46 45 42 40 38 36 33 31 29 28 28 27 26 27 27 27 27 29 30 32 33 33 33 32 29 28 31 33 34 35 36 38 39 40
35 36 38 39 40 42 44 45 45 44 40 38 37 36 34 32 30 28 27 27 27 28 27 26 28 29 30 31 32 32 32 30 29 30 33 34 34 36 38 38 39 39
38 39 40 42 43 45 46 46 44 41 38 37 36 36 35 34 31 29 28 28 28 28 26 26 28 28 27 28 30 30 29 29 30 32 35 35 36 38 39 39 40 41
40 41 43 45 46 47 47 45 41 38 35 35 36 36 35 34 32 30 29 29 30 29 26 25 26 25 24 26 27 27 28 30 32 34 36 37 38 39 39 40 41 41
43 44 47 48 48 46 44 42 38 35 34 34 36 36 35 33 32 31 30 31 31 28 24 22 22 22 22 23 24 24 27 30 32 35 37 37 37 38 39 40 40 41
45 47 50 50 47 43 41 39 36 34 33 34 35 35 34 32 32 31 31 31 30 25 20 19 21 23 24 25 25 25 27 31 33 36 37 36 36 37 39 40 41 43
Wind_Direction
271 270 272 277 286 295 302 308 310 311 311 311 312 313 313 311 309 308 307 307 307 308 307 305 302 299 298 299 299 298 295 293 290 287 285 284 284 285 287 287 287 286
264 264 267 275 286 295 300 305 308 311 311 310 310 310 309 307 306 306 306 306 307 307 308 306 304 301 299 297 296 294 293 292 291 289 286 285 286 288 289 288 288 287
259 259 266 277 287 293 298 304 308 309 309 308 308 308 306 304 303 304 305 306 306 306 306 304 302 302 301 298 294 289 288 289 289 287 285 286 288 289 290 289 288 287
256 260 270 279 286 292 298 305 307 307 307 306 307 308 308 307 308 309 311 311 309 307 305 303 301 301 301 300 295 288 285 287 286 283 281 282 285 288 288 288 288 287
257 265 275 282 289 295 301 306 307 305 305 305 308 312 312 312 314 316 315 314 312 310 309 306 304 304 302 301 298 294 289 288 288 284 279 277 280 284 285 285 285 285
261 270 277 284 292 298 302 305 305 305 307 309 313 315 311 309 312 314 313 312 311 310 308 307 306 306 306 305 305 304 296 288 287 286 280 275 278 282 283 284 284 285
264 273 280 286 291 296 301 302 304 308 310 312 315 314 309 308 308 309 311 312 311 309 307 306 306 306 307 309 307 302 292 284 284 284 280 277 280 283 285 286 286 287
267 275 281 285 288 294 301 302 303 309 312 311 313 313 310 310 309 307 309 311 311 310 307 305 305 302 302 303 297 285 281 280 280 282 281 280 283 285 287 289 290 290
269 276 280 285 289 295 301 302 302 307 311 311 313 314 311 309 308 307 309 311 310 308 308 306 304 300 295 289 283 276 275 278 279 281 282 283 285 286 287 290 292 291
275 280 284 289 292 297 303 304 305 308 310 311 311 310 308 305 306 307 308 308 304 303 311 313 307 300 286 273 274 272 271 278 282 284 285 286 288 288 286 287 291 291
280 284 287 291 295 301 306 306 307 309 310 309 307 305 305 304 304 306 307 304 297 292 302 313 310 299 284 272 271 269 271 282 289 289 289 289 290 288 284 285 289 291
282 284 287 291 297 305 308 307 309 310 310 311 308 304 306 306 304 304 307 307 301 288 285 297 303 294 284 276 271 270 274 283 292 293 290 290 291 289 287 287 289 288
285 286 288 293 299 304 308 310 312 313 311 311 311 306 306 308 304 301 304 309 312 301 286 289 294 285 280 278 275 274 276 281 291 294 292 294 294 292 292 291 289 285
294 295 296 298 302 306 309 312 313 311 306 305 308 308 308 309 304 301 301 299 307 324 314 298 290 280 275 276 275 276 278 282 289 291 290 293 294 293 293 291 287 285
300 302 302 303 306 309 312 315 314 311 310 309 308 308 309 310 304 301 299 284 277 308 320 310 291 277 272 274 276 278 281 284 287 287 287 291 294 294 294 290 287 285
301 301 302 302 304 308 312 315 314 315 319 318 310 308 310 310 306 305 303 289 278 298 313 311 294 279 273 275 277 279 284 287 287 286 287 291 294 293 292 288 286 285
303 303 302 300 302 307 311 314 315 316 320 318 311 310 312 311 310 309 308 305 300 302 307 305 296 283 276 277 278 279 285 287 285 285 287 289 290 289 287 286 285 286
304 304 303 301 302 306 309 312 314 314 315 313 310 309 310 310 310 306 305 309 309 306 302 299 294 286 278 277 277 278 282 283 283 283 284 285 286 284 284 286 287 288
301 302 303 302 303 305 308 311 312 311 310 308 305 304 304 306 305 300 300 305 307 304 300 297 292 285 277 274 275 276 279 280 279 278 279 280 281 281 284 287 288 289
298 299 301 303 304 306 308 309 309 308 306 303 301 300 300 301 300 297 299 302 303 301 298 295 288 279 273 273 274 277 279 279 276 273 273 276 279 281 284 286 287 288
296 298 301 304 305 306 307 306 306 306 303 299 299 299 298 298 299 300 300 301 300 298 295 292 283 274 271 274 276 279 279 276 270 269 271 275 279 282 282 282 284 287
296 299 302 304 306 306 305 304 303 302 299 296 297 298 298 299 301 302 301 300 300 299 295 287 278 273 273 275 277 279 276 269 267 270 274 278 281 281 280 281 285 289
295 299 302 304 305 305 305 303 301 298 295 294 297 298 298 300 302 302 302 301 302 299 292 281 275 273 273 275 277 277 271 267 271 276 279 281 281 280 279 281 288 293
294 299 302 304 305 305 305 303 299 296 294 294 297 299 299 300 301 301 302 303 303 299 289 276 269 268 269 272 275 273 269 271 277 281 282 283 283 283 282 283 289 294
293 298 301 304 304 304 303 301 297 296 297 298 298 299 298 299 300 301 302 304 303 298 287 272 263 263 266 270 271 270 271 277 282 283 283 285 287 286 285 287 291 294
292 296 300 302 302 301 299 297 296 298 300 299 298 298 297 297 298 299 301 304 301 294 285 276 269 266 266 270 273 275 279 285 286 285 284 287 288 288 290 293 295 296
Height
5913 5913 5912 5912 5911 5911 5911 5911 5910 5909 5908 5907 5906 5905 5904 5903 5902 5900 5899 5898 5897 5896 5895 5894 5893 5892 5891 5890 5889 5888 5887 5886 5885 5885 5884 5883 5882 5881 5880 5879 5878 5877
5911 5911 5910 5910 5910 5910 5910 5909 5908 5907 5906 5905 5904 5903 5902 5900 5899 5898 5896 5895 5894 5893 5892 5890 5889 5888 5887 5886 5885 5884 5883 5882 5881 5881 5880 5879 5879 5878 5877 5876 5875 5874
5908 5908 5908 5908 5908 5907 5907 5907 5906 5905 5903 5902 5902 5901 5900 5898 5897 5896 5894 5893 5891 5890 5889 5887 5886 5884 5883 5882 5881 5880 5879 5878 5878 5877 5876 5875 5875 5874 5873 5872 5871 5870
5906 5906 5906 5906 5905 5905 5905 5904 5903 5902 5900 5899 5898 5898 5897 5895 5894 5893 5892 5890 5889 5887 5885 5883 5882 5880 5878 5877 5876 5875 5875 5874 5874 5873 5872 5871 5870 5869 5869 5868 5867 5866
5903 5903 5903 5903 5903 5902 5902 5901 5900 5899 5897 5896 5895 5894 5893 5892 5891 5890 5889 5887 5885 5883 5881 5879 5878 5876 5874 5872 5871 5870 5870 5870 5869 5868 5867 5867 5866 5865 5864 5864 5863 5862
5901 5901 5901 5900 5900 5899 5899 5898 5897 5896 5895 5893 5892 5891 5889 5889 5888 5886 5885 5884 5882 5880 5878 5876 5873 5872 5870 5868 5866 5865 5865 5865 5864 5863 5862 5862 5861 5861 5860 5860 5859 5858
5898 5898 5898 5898 5897 5896 5895 5894 5893 5892 5891 5890 5889 5888 5886 5885 5884 5883 5882 5881 5879 5876 5874 5872 5869 5867 5866 5865 5862 5861 5861 5860 5859 5858 5857 5857 5857 5856 5856 5856 5855 5854
5896 5896 5896 5895 5894 5894 5892 5891 5890 5889 5889 5888 5887 5885 5884 5882 5881 5879 5879 5877 5875 5872 5869 5867 5865 5863 5862 5861 5859 5858 5857 5855 5854 5854 5853 5853 5853 5852 5852 5851 5851 5850
5894 5894 5893 5893 5892 5891 5890 5888 5887 5887 5886 5884 5884 5882 5881 5880 5878 5876 5875 5874 5872 5869 5866 5863 5861 5860 5859 5857 5856 5854 5853 5851 5850 5850 5850 5849 5849 5848 5848 5848 5847 5846
5892 5891 5891 5890 5889 5888 5887 5886 5885 5884 5882 5881 5880 5879 5878 5877 5876 5874 5873 5871 5869 5867 5864 5861 5859 5857 5855 5853 5852 5850 5849 5848 5847 5847 5847 5846 5846 5845 5845 5844 5843 5842
5889 5888 5887 5887 5886 5886 5884 5883 5882 5880 5878 5877 5877 5876 5875 5874 5872 5871 5869 5867 5866 5864 5862 5859 5857 5854 5852 5850 5848 5847 5846 5845 5845 5844 5843 5843 5842 5842 5841 5840 5839 5838
5885 5885 5884 5884 5883 5882 5880 5878 5877 5876 5875 5874 5873 5873 5872 5871 5869 5867 5865 5862 5860 5859 5858 5856 5854 5852 5849 5847 5845 5844 5843 5843 5842 5841 5840 5840 5839 5838 5837 5836 5835 5834
5882 5882 5882 5881 5880 5879 5877 5875 5874 5872 5871 5870 5870 5870 5869 5868 5865 5863 5861 5859 5856 5854 5854 5853 5851 5848 5846 5844 5842 5840 5840 5840 5839 5837 5836 5836 5835 5833 5833 5831 5830 5829
5880 5879 5878 5878 5877 5875 5874 5872 5870 5867 5866 5867 5867 5867 5865 5863 5861 5859 5858 5857 5853 5851 5851 5850 5847 5844 5842 5840 5838 5837 5836 5836 5835 5833 5833 5832 5831 5830 5829 5827 5826 5825
5877 5876 5875 5874 5873 5871 5870 5869 5866 5862 5863 5864 5863 5861 5861 5859 5856 5854 5854 5853 5850 5848 5847 5845 5842 5840 5838 5836 5834 5833 5833 5832 5831 5829 5829 5828 5827 5826 5825 5824 5822 5821
5873 5872 5871 5870 5869 5867 5866 5864 5861 5858 5860 5862 5859 5857 5857 5855 5852 5850 5847 5847 5846 5845 5843 5840 5837 5834 5833 5832 5831 5830 5829 5828 5827 5826 5825 5824 5823 5822 5821 5819 5818 5818
5869 5868 5867 5866 5864 5863 5862 5860 5857 5855 5856 5857 5855 5853 5853 5850 5847 5844 5842 5841 5841 5840 5838 5835 5832 5829 5828 5827 5826 5825 5824 5824 5823 5822 5821 5820 5819 5818 5816 5815 5815 5814
5866 5865 5864 5862 5860 5859 5858 5856 5854 5852 5851 5852 5851 5848 5846 5845 5843 5840 5838 5837 5836 5835 5833 5830 5827 5825 5824 5822 5821 5821 5820 5820 5820 5819 5817 5816 5815 5813 5812 5811 5811 5811
5862 5861 5860 5859 5857 5856 5854 5852 5850 5848 5846 5846 5846 5845 5842 5840 5839 5837 5835 5833 5832 5830 5828 5825 5823 5821 5819 5818 5816 5816 5816 5816 5816 5815 5813 5812 5810 5809 5808 5807 5807 5806
5859 5857 5856 5855 5854 5852 5850 5847 5845 5843 5842 5840 5840 5840 5838 5836 5834 5833 5831 5829 5828 5826 5823 5821 5819 5816 5815 5814 5812 5812 5812 5812 5811 5811 5809 5808 5806 5805 5804 5803 5802 5801
5855 5853 5852 5851 5849 5847 5845 5843 5840 5838 5837 5835 5834 5834 5833 5831 5830 5828 5827 5825 5823 5821 5819 5817 5814 5812 5811 5810 5809 5809 5809 5808 5807 5806 5804 5803 5802 5801 5800 5799 5798 5796
5850 5849 5847 5846 5844 5842 5840 5837 5835 5833 5832 5830 5829 5828 5826 5825 5824 5823 5821 5819 5817 5816 5814 5812 5810 5808 5808 5807 5806 5805 5804 5803 5803 5801 5799 5798 5798 5797 5796 5794 5793 5792
5845 5844 5842 5841 5839 5836 5834 5831 5829 5828 5826 5824 5823 5822 5821 5819 5818 5816 5815 5814 5812 5810 5808 5806 5805 5804 5804 5803 5802 5801 5801 5799 5798 5796 5795 5794 5793 5792 5791 5790 5789 5787
5840 5838 5837 5835 5833 5830 5827 5824 5823 5822 5821 5819 5818 5817 5815 5814 5812 5811 5810 5808 5806 5804 5803 5802 5801 5800 5800 5799 5798 5798 5797 5795 5793 5791 5790 5789 5788 5787 5786 5785 5784 5782
5835 5833 5831 5829 5827 5823 5821 5818 5817 5816 5816 5814 5813 5811 5810 5808 5807 5805 5804 5803 5801 5799 5798 5798 5797 5797 5796 5795 5794 5794 5792 5790 5788 5787 5785 5784 5783 5782 5780 5779 5778 5776
5829 5827 5825 5823 5821 5818 5815 5813 5811 5811 5810 5809 5808 5807 5805 5804 5802 5801 5799 5798 5797 5795 5795 5794 5793 5792 5792 5790 5789 5788 5786 5785 5783 5782 5780 5779 5778 5776 5774 5774 5772 5770